Ketchikan, AK

10:53 PM AKDT on September 22, 2018 (GMT -0800)
Ketchikan International

Weather History for PAKT - October, 2017

Change the Weather History Date:

Wednesday, October 11, 2017

  Actual Average Record
Temperature  
Mean Temperature 44 °F -  
Max Temperature 51 °F 52 °F 64 °F (1980)
Min Temperature 39 °F 41 °F 22 °F (1972)
Degree Days  
Heating Degree Days 20    
Moisture  
Dew Point 39 °F    
Average Humidity 83    
Maximum Humidity 96    
Minimum Humidity 63    
Precipitation  
Precipitation 0.00 in - - ()
Sea Level Pressure  
Sea Level Pressure 30.06 in    
Wind  
Wind Speed 5 mph (NW)    
Max Wind Speed 9 mph    
Max Gust Speed -    
Visibility 10 miles    
Events      
Averages and records for this station are not official NWS values.
T = Trace of Precipitation, MM = Missing Value Source: NWS Daily Summary

Daily Weather History Graph

Daily Weather History Graph

Search for Another Location

Airport or City:

Astronomy

Oct. 11, 2017 Rise Set
Actual Time 7:09 AM AKDT 5:55 PM AKDT
Civil Twilight 6:33 AM AKDT 6:32 PM AKDT
Nautical Twilight 5:50 AM AKDT 7:14 PM AKDT
Astronomical Twilight 5:07 AM AKDT 7:57 PM AKDT
Moon 10:28 PM AKDT (10/11) 2:12 PM AKDT (10/11)
Length of Visible Light 11h 59m
Length of Day
10h 46m
Waning Gibbous, 58% of the Moon is Illuminated
Oct 11
Waning Gibbous
Oct 12
Last Quarter
Oct 19
New
Oct 27
First Quarter
Nov 3
Full

Hourly Weather History & Observations

Time (AKDT) Temp. Windchill Dew Point Humidity Pressure Visibility Wind Dir Wind Speed Gust Speed Precip Events Conditions
12:53 AM 41.0 °F 35.8 °F 39.0 °F 93% 30.10 in 10.0 mi NW 8.1 mph - N/A   Clear
1:53 AM 41.0 °F 36.4 °F 39.0 °F 93% 30.10 in 10.0 mi NW 6.9 mph - N/A   Clear
2:53 AM 41.0 °F 36.4 °F 39.0 °F 93% 30.09 in 10.0 mi NNW 6.9 mph - N/A   Clear
3:53 AM 41.0 °F 37.1 °F 39.9 °F 96% 30.08 in 10.0 mi NW 5.8 mph - N/A   Clear
4:53 AM 39.9 °F 36.7 °F 37.9 °F 93% 30.07 in 10.0 mi WNW 4.6 mph - N/A   Clear
5:53 AM 41.0 °F 38.0 °F 39.0 °F 93% 30.08 in 10.0 mi NW 4.6 mph - N/A   Partly Cloudy
6:06 AM 41.0 °F 38.0 °F 39.0 °F 93% 30.07 in 10.0 mi NW 4.6 mph - N/A   Partly Cloudy
6:53 AM 41.0 °F 39.0 °F 39.2 °F 93% 30.07 in 10.0 mi WNW 3.5 mph - N/A   Partly Cloudy
7:53 AM 42.8 °F 41.1 °F 39.2 °F 87% 30.06 in 10.0 mi WNW 3.5 mph - N/A   Overcast
8:53 AM 43.0 °F - 39.9 °F 89% 30.06 in 10.0 mi Calm Calm - N/A   Overcast
8:56 AM 43.0 °F - 39.9 °F 89% 30.06 in 10.0 mi Calm Calm - N/A   Overcast
9:53 AM 45.0 °F - 41.0 °F 86% 30.05 in 10.0 mi Calm Calm - N/A   Overcast
10:53 AM 46.0 °F - 39.9 °F 79% 30.05 in 10.0 mi Calm Calm - N/A   Overcast
11:53 AM 48.0 °F - 39.9 °F 74% 30.04 in 10.0 mi NNW 5.8 mph - N/A   Scattered Clouds
12:53 PM 50.0 °F - 37.9 °F 63% 30.03 in 10.0 mi NNW 9.2 mph - N/A   Mostly Cloudy
1:53 PM 48.9 °F - 37.9 °F 66% 30.03 in 10.0 mi NNW 6.9 mph - N/A   Overcast
2:53 PM 48.9 °F - 41.0 °F 74% 30.03 in 10.0 mi North 5.8 mph - N/A   Overcast
3:53 PM 48.9 °F - 42.1 °F 77% 30.03 in 10.0 mi NW 3.5 mph - 0.00 in   Overcast
4:53 PM 46.9 °F - 37.9 °F 71% 30.03 in 10.0 mi WNW 6.9 mph - 0.00 in   Mostly Cloudy
5:53 PM 45.0 °F 42.6 °F 37.9 °F 76% 30.03 in 10.0 mi WNW 4.6 mph - N/A   Scattered Clouds
6:53 PM 46.0 °F 43.9 °F 39.9 °F 79% 30.04 in 10.0 mi NW 4.6 mph - N/A   Mostly Cloudy
7:53 PM 46.0 °F 43.9 °F 39.9 °F 79% 30.04 in 10.0 mi WNW 4.6 mph - N/A   Mostly Cloudy
8:53 PM 45.0 °F 41.2 °F 39.0 °F 80% 30.05 in 10.0 mi WNW 6.9 mph - N/A   Clear
9:08 PM 45.0 °F 41.2 °F 39.0 °F 80% 30.04 in 10.0 mi WNW 6.9 mph - N/A   Mostly Cloudy
9:35 PM 44.1 °F 40.8 °F 39.0 °F 82% 30.05 in 10.0 mi NW 5.8 mph - N/A   Scattered Clouds
9:53 PM 44.1 °F 41.5 °F 39.0 °F 82% 30.06 in 10.0 mi NW 4.6 mph - N/A   Partly Cloudy
10:53 PM 43.0 °F 39.5 °F 39.0 °F 86% 30.06 in 10.0 mi Variable 5.8 mph - N/A   Clear
11:53 PM 43.0 °F 38.2 °F 37.9 °F 82% 30.07 in 10.0 mi NW 8.1 mph - N/A   Clear